Terug naar catalogus

COSMOS 839 DEB

ActiefUNKNOWN
NORAD 10416·DEBRIS·🇷🇺 Russia

Gelanceerd Jul 8, 1976 vanaf Plesetsk Cosmodrome

Loading…

Volgende Passages (komende 24 uur)

TLE

VersSource: Space-Track

Epoch: Sep 14, 2026, 10:45 UTC

1 10416U 76067K   26257.44842205 -.00000039  00000-0  66129-4 0  9990
2 10416  65.7182  45.2968 0644154  70.4880 327.2429 12.20407277236763

Volg COSMOS 839 DEB in realtime met AllMySat

Download on the App Store